Location: Bennetts Corners
(41.2764°N, 81.7851°W)
Time: 11:14:47
(UTC+00:00)

Daily predictions for brighter satellites

Satellite Brightness Start Highest point End
(mag) Time Altitude Azimuth Time Altitude Azimuth Time Altitude Azimuth
STARLINK 1032 4.2 12:00:15 10° W 12:03:33 32° NNW 12:06:53 10° NE
STARLINK 1011 4.2 12:03:21 10° W 12:06:39 31° NNW 12:09:58 10° NE
STARLINK-60 3.0 12:03:57 10° NW 12:07:19 82° SW 12:10:40 10° SE
STARLINK 1064 3.8 12:04:50 10° SW 12:08:57 75° SE 12:13:06 10° NE
STARLINK 1036 4.3 12:06:31 10° W 12:09:47 29° NNW 12:13:04 10° NE
Genesis I 4.5 12:06:58 10° WNW 12:10:04 23° WSW 12:13:07 10° SSW
SL-16 R/B 3.0 12:05:14 10° WSW 12:10:11 30° NW 12:15:10 10° N
STARLINK 1040 4.5 12:08:20 10° WNW 12:10:19 17° NNW 12:12:18 10° NNE
Cosmos 2322 4.0 12:07:39 10° SSW 12:13:18 76° ESE 12:18:58 10° NNE
IRS-1C Rocket 4.1 12:08:13 10° N 12:13:29 76° WNW 12:18:45 10° SSW
NOAA 12 4.3 12:08:25 10° NNE 12:13:44 82° ESE 12:19:03 10° SSW
STARLINK 1041 3.7 12:09:49 10° SW 12:13:56 82° SE 12:18:06 10° NE
Cosmos 2360 Rocket 2.3 12:09:56 10° SW 12:15:31 60° WNW 12:21:09 10° NNE
STARLINK 1047 4.4 12:12:53 10° W 12:16:05 27° NNW 12:19:18 10° NE
CENTAUR R/B 3.8 12:08:43 10° NW 12:16:08 37° WSW 12:23:54 10° S
Cosmos-2242 4.1 12:13:12 10° SSE 12:17:26 51° E 12:21:42 10° NNE
STARLINK 1037 4.4 12:14:20 10° W 12:17:31 27° NNW 12:20:43 10° NE
Cosmos 1812 Rocket 3.6 12:13:50 10° SSW 12:18:07 57° W 12:22:29 10° N
STARLINK 1038 3.7 12:14:46 10° SW 12:18:54 89° SE 12:23:03 10° NE
CZ-2C R/B 4.5 12:14:32 10° SE 12:19:06 31° ENE 12:23:46 10° N
Cosmos 2219 Rocket 3.3 12:15:12 10° S 12:20:38 51° ESE 12:26:08 10° NNE
CZ-4B R/B 4.0 12:17:17 10° N 12:21:58 29° WNW 12:26:32 10° WSW
Cosmos 2219 Rocket 3.4 22:52:29 10° NW 22:57:55 49° WSW 23:03:19 10° S
USA 32 4.3 22:53:51 10° SSE 22:58:50 48° E 23:03:52 10° NNE
Meteor 2-10 Rocket 4.4 22:54:32 10° NNE 22:58:59 27° ENE 23:03:18 10° SE
Cosmos 2227 Rocket 2.3 22:55:49 10° S 23:01:20 59° ESE 23:06:54 10° NNE
Cosmos 1125 Rocket 4.5 22:58:51 10° SW 23:03:52 48° WNW 23:08:56 10° N
Cosmos 1953 Rocket 4.4 23:00:08 10° SSE 23:04:02 30° E 23:07:58 10° NNE
YAOGAN 6 3.2 23:00:55 10° SE 23:04:18 36° ENE 23:07:42 10° N
BREEZE-M DEB (TANK) 1.9 23:03:53 10° WSW 23:06:32 88° SE 23:08:53 10° ENE
COSMO-SKYMED 1 3.1 23:03:59 10° NNE 23:08:04 38° E 23:12:06 10° SSE
Cosmos 1758 Rocket 3.6 23:04:15 10° S 23:08:28 57° E 23:12:42 10° NNE
Cosmos 1703 4.4 23:05:52 10° SE 23:09:02 23° E 23:12:13 10° NE
Envisat 3.0 23:06:37 10° SSE 23:11:40 73° ENE 23:16:44 10° N
Cosmos 1626 3.8 23:09:44 10° SW 23:13:10 36° WNW 23:16:37 10° N
ADEOS Rocket 4.5 23:09:54 10° NE 23:15:04 22° E 23:20:28 10° SE
DELTA 2 R/B (1) 3.7 23:09:58 10° W 23:15:33 76° S 23:21:09 10° E
Cosmos 2218 Rocket 4.4 23:11:05 10° SSE 23:17:00 44° E 23:23:00 10° NNE
Shenzhou-11 Module 1.6 23:15:03 10° WSW 23:17:44 89° W 23:19:57 14° ENE
Cosmos 44 3.2 23:13:09 10° SSW 23:17:44 64° ESE 23:22:09 10° NE
Cosmos 1939 Rocket 4.1 23:15:06 10° ESE 23:17:55 19° ENE 23:20:47 10° NNE
Cosmos 1825 Rocket 3.5 23:27:44 10° S 23:32:05 88° WNW 23:36:26 10° N
CSL-04 Debris 4.5 23:28:03 10° SE 23:33:07 43° ENE 23:38:12 10° N
Okean-O 2.9 23:32:04 10° S 23:36:29 75° WSW 23:40:56 10° NNW
CZ-2D R/B 4.0 23:34:25 10° SE 23:37:48 31° ENE 23:41:13 10° N
Cosmos 1455 2.1 23:34:13 10° N 23:37:59 59° E 23:41:42 10° SSE
ISS -2.7 23:36:23 10° W 23:39:35 38° NNW 23:41:53 16° NE
USA 116 3.4 23:43:22 15° NNE 23:45:41 45° E 23:48:39 10° S
Cosmos 2366 rocket 3.9 23:41:37 10° S 23:47:47 72° E 23:54:02 10° NNE
FALCON 9 R/B 4.3 23:29:38 10° SW 23:49:13 34° S 23:54:59 14° ESE
Cosmos 44 Rocket 4.3 23:48:18 10° SSE 23:52:15 26° ESE 23:53:16 24° E
CZ-4 R/B 1.3 23:49:43 10° SSE 23:53:46 90° ENE 23:57:56 10° NNW
Cosmos 2221 4.0 23:51:16 10° NNE 23:53:04 19° NE 23:53:04 19° NE
Ariane Rocket 3.7 23:50:54 10° SE 23:55:14 29° ENE 23:59:35 10° N
